Weather in Uznezya

Russia / Altai Republic     51°31′45″N   85°56′01″E
temp.,
°C
wind,
m/s
gust,
m/s
humid.,
%
clouds,
%
prec.,
mm/h
press.,
hPa
HPBL,
m
18 april, sun
sun1801:00−1ene019063 0.3 1022175
04:00−2n009661 0.0 102132
07:000ene009084 0.0 1021179
10:00+3nnw017948 0.0 1020416
13:00+7nnw226182 0.0 1017977
16:00+8n345659 0.0 10151310
19:00+7ne116174 0.0 101588
22:00+2se23794 0.0 101642
19 april, mon
mon1901:00+2sse410715 0.0 1013193
04:00+3sse486916 0.0 1011121
07:00+8sw61452100 0.0 10071048
10:00+1n4699100 2.4 1013355
13:00−2n4588100 5.2 1019700
16:00−3n3489100 2.1 1021590
19:00−4n2389100 3.0 1021495
22:00−5n2394100 1.2 1022269
20 april, tue
tue2001:00−5n1290100 1.3 1021210
04:00−6n2395100 0.4 1022313
07:00−8n2490100 1.0 1024420
10:00−6nnw2376100 0.3 1024949
13:00−5nnw3374100 0.5 10241085
16:00−3n3367100 0.3 10231203
19:00−5n346794 0.4 1024923
22:00−10ne119556 0.0 102712
21 april, wed
wed2101:00−12sse11959 0.0 102811
04:00−13sse11955 0.0 102818
07:00−12sse12865 0.0 102776
10:00−4ssw11595 0.0 1024720
13:00−1nnw215066 0.0 10211220
16:000nnw2248100 0.0 10201458
19:00−2n3364100 0.0 1022894
22:00−5n1384100 0.0 1024137
22 april, thu
thu2201:00−5nnw1386100 0.3 1025376
04:00−6nnw1388100 0.3 1026278
07:00−6nnw1383100 0.4 1028470
10:00−4nnw2475100 0.4 10291041
13:00−1n3461100 0.8 10301585
16:000n3556100 0.3 10311640
19:00−2nnw2464100 0.5 10331142
22:00−4nnw1289100 0.1 103666